TimeCST,TemperatureF,Dew PointF,Humidity,Sea Level PressureIn,VisibilityMPH,Wind Direction,Wind SpeedMPH,Gust SpeedMPH,PrecipitationIn,Events,Conditions,WindDirDegrees,DateUTC
1:54 AM,24.1,12.9,62,30.27,10.0,East,11.5,-,N/A,,Overcast,90,2013-02-21 07:54:00
2:54 AM,24.1,12.9,62,30.23,10.0,East,13.8,-,N/A,,Overcast,90,2013-02-21 08:54:00
3:54 AM,23.0,12.9,65,30.17,10.0,East,17.3,-,N/A,,Mostly Cloudy,100,2013-02-21 09:54:00
4:54 AM,24.1,14.0,65,30.18,10.0,East,13.8,-,N/A,,Overcast,100,2013-02-21 10:54:00
5:54 AM,24.1,14.0,65,30.16,10.0,East,16.1,-,N/A,,Overcast,90,2013-02-21 11:54:00
6:54 AM,25.0,14.0,63,30.17,10.0,East,15.0,-,N/A,,Overcast,100,2013-02-21 12:54:00
7:54 AM,24.1,16.0,71,30.12,4.0,East,17.3,-,0.00,Snow,Light Snow,80,2013-02-21 13:54:00
8:03 AM,24.1,16.0,71,30.08,2.5,East,16.1,-,0.01,Snow,Light Snow,90,2013-02-21 14:03:00
8:11 AM,24.1,17.1,75,30.10,4.0,East,19.6,26.5,0.02,,Overcast,100,2013-02-21 14:11:00
8:13 AM,24.1,17.1,75,30.10,4.0,East,18.4,26.5,0.03,Snow,Snow,100,2013-02-21 14:13:00
8:29 AM,24.1,17.1,75,30.09,2.5,East,16.1,24.2,0.04,Snow,Light Snow,100,2013-02-21 14:29:00
8:32 AM,23.0,18.0,81,30.08,1.8,East,19.6,-,0.04,Snow,Light Snow,100,2013-02-21 14:32:00
8:42 AM,23.0,19.0,85,30.08,0.5,East,13.8,24.2,0.07,Fog-Snow,Heavy Snow,90,2013-02-21 14:42:00
8:49 AM,23.0,19.4,86,30.09,1.0,East,18.4,24.2,0.08,Snow,Light Snow,90,2013-02-21 14:49:00
8:54 AM,23.0,19.0,85,30.14,0.8,East,15.0,25.3,0.10,Snow,Light Snow,100,2013-02-21 14:54:00
9:07 AM,21.9,19.9,92,30.06,0.2,East,17.3,24.2,0.04,Fog-Snow,Heavy Snow,80,2013-02-21 15:07:00
9:20 AM,21.9,19.0,89,30.04,0.2,East,17.3,-,0.08,Fog-Snow-Thunderstorm,Heavy Thunderstorms and Snow,80,2013-02-21 15:20:00
9:54 AM,23.0,19.9,88,30.10,0.2,ENE,13.8,-,0.23,Fog-Snow-Thunderstorm,Thunderstorms and Snow,70,2013-02-21 15:54:00
9:59 AM,23.0,19.9,88,30.06,0.5,ENE,13.8,-,0.01,Fog-Snow-Thunderstorm,Thunderstorms and Snow,60,2013-02-21 15:59:00
10:24 AM,23.0,19.9,88,30.09,0.2,ENE,11.5,-,0.06,Fog-Snow-Thunderstorm,Heavy Thunderstorms and Snow,60,2013-02-21 16:24:00
10:32 AM,23.0,19.9,88,30.10,0.2,ENE,8.1,-,0.07,Fog-Snow-Thunderstorm,Thunderstorms and Snow,70,2013-02-21 16:32:00
10:54 AM,23.0,19.9,88,30.09,0.2,ENE,16.1,-,0.20,Fog-Snow-Thunderstorm,Thunderstorms and Snow,70,2013-02-21 16:54:00
11:31 AM,23.0,19.9,88,30.06,0.2,East,13.8,24.2,0.09,Fog-Snow-Thunderstorm,Thunderstorms and Snow,90,2013-02-21 17:31:00
11:44 AM,23.0,19.9,88,30.06,0.2,East,15.0,-,0.16,Fog-Snow-Thunderstorm,Heavy Thunderstorms and Snow,90,2013-02-21 17:44:00
11:54 AM,23.0,19.9,88,30.08,0.2,East,16.1,23.0,0.22,Fog-Snow-Thunderstorm,Heavy Thunderstorms and Snow,90,2013-02-21 17:54:00
12:03 PM,23.0,19.4,86,30.02,0.2,East,18.4,24.2,N/A,Fog-Snow,Snow,80,2013-02-21 18:03:00
12:17 PM,23.0,19.9,88,30.01,0.5,East,19.6,26.5,0.10,Fog-Snow,Snow,80,2013-02-21 18:17:00
12:35 PM,23.0,19.9,88,29.98,0.2,East,20.7,-,0.17,Fog-Snow,Heavy Snow,90,2013-02-21 18:35:00
12:54 PM,23.0,19.9,88,29.99,0.5,East,20.7,29.9,0.23,Fog-Snow,Light Snow,90,2013-02-21 18:54:00
1:02 PM,23.0,19.9,88,29.95,0.8,East,17.3,29.9,0.02,Snow,Light Snow,80,2013-02-21 19:02:00
1:54 PM,24.1,21.0,88,29.95,1.0,East,19.6,-,0.15,Snow,Light Snow,100,2013-02-21 19:54:00
2:01 PM,24.1,21.0,88,29.90,1.0,East,21.9,25.3,0.02,Snow,Light Snow,100,2013-02-21 20:01:00
2:33 PM,25.0,21.0,85,29.88,1.5,East,19.6,-,0.06,,Overcast,100,2013-02-21 20:33:00
2:54 PM,25.0,21.9,88,29.91,1.2,East,15.0,-,0.12,,Overcast,80,2013-02-21 20:54:00
3:06 PM,26.1,21.9,84,29.86,1.0,East,16.1,-,0.04,,Overcast,90,2013-02-21 21:06:00
3:54 PM,27.0,24.1,89,29.84,1.5,East,16.1,24.2,0.12,,Overcast,80,2013-02-21 21:54:00
4:06 PM,27.0,23.0,85,29.83,2.5,East,17.3,25.3,0.00,,Overcast,90,2013-02-21 22:06:00
4:10 PM,27.0,23.0,85,29.83,2.5,East,13.8,23.0,0.01,,Overcast,100,2013-02-21 22:10:00
4:34 PM,27.0,24.1,89,29.76,1.5,East,25.3,32.2,0.02,,Overcast,90,2013-02-21 22:34:00
4:54 PM,26.1,23.0,88,29.83,1.8,East,18.4,-,0.03,,Overcast,100,2013-02-21 22:54:00
5:01 PM,26.1,23.0,88,29.81,3.0,East,15.0,25.3,0.01,,Overcast,100,2013-02-21 23:01:00
5:14 PM,26.1,23.0,88,29.80,1.8,East,15.0,24.2,0.01,,Overcast,100,2013-02-21 23:14:00
5:37 PM,26.1,23.0,88,29.80,3.0,East,13.8,-,0.02,,Overcast,90,2013-02-21 23:37:00
5:50 PM,26.6,23.0,86,29.80,6.0,East,15.0,-,0.02,,Overcast,100,2013-02-21 23:50:00
5:54 PM,26.1,23.0,88,29.83,6.0,East,13.8,-,0.02,,Overcast,100,2013-02-21 23:54:00
6:54 PM,26.1,24.1,92,29.82,3.0,ESE,13.8,-,N/A,,Overcast,110,2013-02-22 00:54:00
7:40 PM,27.0,25.0,92,29.81,2.5,ESE,11.5,-,0.00,Rain,Light Freezing Rain,120,2013-02-22 01:40:00
7:54 PM,27.0,25.0,92,29.83,2.5,ESE,12.7,-,0.00,,Overcast,120,2013-02-22 01:54:00
8:02 PM,27.0,25.0,92,29.79,2.5,ESE,11.5,-,0.00,Rain,Light Freezing Rain,110,2013-02-22 02:02:00
8:14 PM,27.0,25.0,92,29.79,3.0,ESE,10.4,19.6,0.00,,Overcast,120,2013-02-22 02:14:00
8:54 PM,27.0,25.0,92,29.82,5.0,ESE,10.4,-,0.00,,Overcast,120,2013-02-22 02:54:00
9:54 PM,28.0,26.1,92,29.81,4.0,ESE,10.4,-,0.01,,Overcast,120,2013-02-22 03:54:00
10:08 PM,28.0,26.1,92,29.79,1.8,ESE,9.2,-,0.01,Snow,Light Snow,120,2013-02-22 04:08:00
10:50 PM,28.4,26.6,93,29.78,1.8,SE,8.1,-,0.03,Snow,Light Snow,130,2013-02-22 04:50:00
10:54 PM,28.0,27.0,96,29.81,1.8,SE,8.1,-,0.03,Snow,Light Snow,130,2013-02-22 04:54:00
11:10 PM,28.9,27.0,92,29.78,1.5,SE,6.9,-,0.00,Snow,Light Snow,130,2013-02-22 05:10:00
11:37 PM,28.9,27.0,92,29.77,2.5,SE,6.9,-,0.01,Snow,Light Snow,130,2013-02-22 05:37:00
11:54 PM,28.9,27.0,92,29.80,2.5,SE,6.9,-,0.01,Snow,Light Snow,130,2013-02-22 05:54:00